| time (UTC) | temp C | wind direction | speed KPH | gust KPH | rain 1hr cm | rain 24hr cm | rain mn cm | humidity % | barometer mb |
| 20260504201511 | 14 | 117 | 0.0 | 0.0 | 0.00 | 0.71 | 0.71 | 72 | 1012.3 |
| 20260504200011 | 14 | 117 | 0.0 | 0.0 | 0.00 | 0.71 | 0.71 | 72 | 1012.3 |
| 20260504194514 | 14 | 117 | 0.0 | 0.0 | 0.00 | 0.71 | 0.71 | 72 | 1012.2 |
| 20260504193011 | 14 | 117 | 0.0 | 0.0 | 0.03 | 0.71 | 0.71 | 72 | 1012.2 |
| 20260504191510 | 14 | 117 | 0.0 | 0.0 | 0.03 | 0.71 | 0.71 | 71 | 1012.0 |
| 20260504190009 | 15 | 117 | 0.0 | 0.0 | 0.03 | 0.71 | 0.71 | 71 | 1012.0 |
| 20260504184509 | 15 | 117 | 0.0 | 0.0 | 0.03 | 0.71 | 0.71 | 71 | 1012.0 |
| 20260504183010 | 15 | 117 | 0.0 | 0.0 | 0.00 | 0.69 | 0.69 | 71 | 1012.0 |
| 20260504181508 | 15 | 118 | 0.0 | 0.0 | 0.00 | 0.69 | 0.69 | 71 | 1012.1 |
| 20260504180008 | 15 | 119 | 0.0 | 0.0 | 0.03 | 0.69 | 0.69 | 71 | 1012.0 |
| 20260504174508 | 15 | 119 | 0.0 | 0.0 | 0.03 | 0.69 | 0.69 | 71 | 1012.1 |
| 20260504173007 | 15 | 119 | 0.0 | 0.0 | 0.03 | 0.69 | 0.69 | 71 | 1012.1 |
| 20260504171506 | 15 | 119 | 0.0 | 0.0 | 0.05 | 0.69 | 0.69 | 71 | 1012.3 |
| 20260504150104 | 16 | 76 | 0.0 | 0.0 | 0.36 | 0.53 | 0.41 | 70 | 1012.8 |
| 20260504081522 | 18 | 44 | 0.0 | 1.6 | 0.00 | 0.18 | 0.00 | 66 | 1012.9 |
| 20260504044544 | 11 | 53 | 0.0 | 0.0 | 0.00 | 0.18 | 0.00 | 75 | 1011.9 |
| 20260504043043 | 11 | 52 | 0.0 | 0.0 | 0.00 | 0.18 | 0.00 | 75 | 1011.9 |
| 20260504041543 | 11 | 53 | 0.0 | 3.2 | 0.00 | 0.18 | 0.00 | 75 | 1012.0 |
| 20260504040042 | 11 | 54 | 0.0 | 3.2 | 0.00 | 0.18 | 0.00 | 75 | 1011.9 |
| 20260504034544 | 11 | 59 | 0.0 | 0.0 | 0.00 | 0.18 | 0.00 | 75 | 1012.0 |
| 20260504033036 | 11 | 58 | 0.0 | 0.0 | 0.00 | 0.18 | 0.00 | 75 | 1012.1 |
| 20260504031536 | 12 | 57 | 0.0 | 0.0 | 0.00 | 0.18 | 0.00 | 75 | 1012.1 |
| 20260504030037 | 12 | 72 | 0.0 | 0.0 | 0.00 | 0.18 | 0.00 | 76 | 1012.1 |
| 20260504024537 | 12 | 73 | 0.0 | 0.0 | 0.00 | 0.18 | 0.00 | 75 | 1012.1 |
| 20260504023033 | 12 | 74 | 0.0 | 0.0 | 0.00 | 0.18 | 0.00 | 75 | 1012.2 |
| 20260504021532 | 12 | 74 | 0.0 | 0.0 | 0.00 | 0.18 | 0.00 | 75 | 1012.1 |
| 20260504020037 | 12 | 74 | 0.0 | 0.0 | 0.00 | 0.18 | 0.00 | 76 | 1012.1 |
| 20260504014532 | 12 | 74 | 0.0 | 0.0 | 0.00 | 0.18 | 0.00 | 76 | 1012.1 |
| 20260504013033 | 12 | 74 | 0.0 | 0.0 | 0.00 | 0.18 | 0.00 | 76 | 1012.1 |
| 20260504011529 | 12 | 74 | 0.0 | 0.0 | 0.00 | 0.18 | 0.00 | 76 | 1012.1 |
| 20260504010027 | 12 | 75 | 0.0 | 0.0 | 0.00 | 0.18 | 0.00 | 76 | 1012.1 |
| 20260504004526 | 12 | 76 | 0.0 | 0.0 | 0.00 | 0.18 | 0.00 | 76 | 1012.0 |
| 20260504003025 | 12 | 76 | 0.0 | 0.0 | 0.00 | 0.18 | 0.00 | 76 | 1012.1 |
| 20260504001533 | 12 | 77 | 0.0 | 0.0 | 0.00 | 0.18 | 0.00 | 76 | 1012.0 |
| 20260504000024 | 12 | 78 | 0.0 | 0.0 | 0.00 | 0.18 | 0.00 | 75 | 1012.1 |
| 20260503234523 | 12 | 78 | 0.0 | 0.0 | 0.00 | 0.18 | 0.00 | 75 | 1012.2 |
| 20260503233022 | 12 | 78 | 0.0 | 0.0 | 0.00 | 0.18 | 0.00 | 75 | 1012.1 |
| 20260503231520 | 12 | 78 | 0.0 | 0.0 | 0.00 | 0.18 | 0.00 | 76 | 1012.0 |
| 20260503230034 | 13 | 78 | 0.0 | 0.0 | 0.00 | 0.18 | 0.00 | 76 | 1012.0 |
| 20260503224515 | 13 | 78 | 0.0 | 0.0 | 0.00 | 0.18 | 0.00 | 76 | 1011.9 |
| 20260503223012 | 13 | 78 | 0.0 | 0.0 | 0.00 | 0.18 | 0.00 | 76 | 1012.1 |
| 20260503221510 | 14 | 78 | 0.0 | 0.0 | 0.00 | 0.18 | 0.00 | 76 | 1012.1 |
| 20260503220011 | 14 | 78 | 0.0 | 0.0 | 0.00 | 0.18 | 0.18 | 76 | 1012.0 |
| 20260503214524 | 14 | 78 | 0.0 | 0.0 | 0.00 | 0.18 | 0.18 | 76 | 1011.9 |
| 20260503213007 | 14 | 80 | 0.0 | 0.0 | 0.00 | 0.18 | 0.18 | 76 | 1012.0 |
| 20260503211507 | 14 | 81 | 0.0 | 0.0 | 0.00 | 0.18 | 0.18 | 76 | 1012.1 |
| 20260503210007 | 14 | 80 | 0.0 | 0.0 | 0.00 | 0.18 | 0.18 | 76 | 1012.0 |
| 20260503204506 | 14 | 80 | 0.0 | 0.0 | 0.00 | 0.18 | 0.18 | 76 | 1011.8 |
| 20260503203010 | 14 | 81 | 0.0 | 0.0 | 0.00 | 0.18 | 0.18 | 76 | 1011.9 |